Date,TemperatureHighF,TemperatureAvgF,TemperatureLowF,DewpointHighF,DewpointAvgF,DewpointLowF,HumidityHigh,HumidityAvg,HumidityLow,PressureMaxIn,PressureMinIn,WindSpeedMaxMPH,WindSpeedAvgMPH,GustSpeedMaxMPH,PrecipitationSumIn
2013-6-1,84,76,72,77,74,72,98,93,80,29.95,29.88,9,1,9,0.77
2013-6-2,88,78,71,78,74,70,98,88,66,29.93,29.84,10,1,10,0.16
2013-6-3,85,77,71,77,74,70,98,92,73,29.96,29.83,11,1,11,0.99
2013-6-4,85,78,74,77,75,73,98,90,74,29.98,29.88,9,0,9,0.03
2013-6-5,83,80,77,78,76,74,93,88,82,29.94,29.82,7,1,7,0.07
2013-6-6,86,79,72,79,76,71,97,89,76,29.83,29.69,22,3,22,1.76
2013-6-7,89,77,73,80,74,72,97,91,70,29.92,29.76,8,1,10,0.89
2013-6-8,84,77,73,79,75,72,98,93,80,30.04,29.88,8,0,8,1.70
2013-6-9,86,81,74,77,75,73,97,83,70,30.04,29.96,13,2,13,0.03
2013-6-10,87,82,79,78,76,75,89,82,71,30.01,29.93,12,2,12,0.00
2013-6-11,87,81,77,79,76,74,95,86,68,30.01,29.93,9,1,9,0.03
2013-6-12,87,78,74,80,76,71,97,92,70,30.01,29.94,5,0,5,0.53
2013-6-13,90,79,73,79,74,71,98,86,61,29.97,29.86,9,0,9,0.00
2013-6-14,92,80,73,77,73,69,98,81,55,29.89,29.80,10,1,10,0.00
2013-6-15,90,81,73,78,75,72,97,82,62,29.98,29.84,10,1,10,0.01
2013-6-16,90,82,74,78,75,72,98,81,56,30.02,29.94,10,1,10,0.00
2013-6-17,90,83,75,78,76,74,97,79,63,30.00,29.93,13,2,13,0.00
2013-6-18,90,83,75,78,75,73,97,80,62,29.99,29.90,11,2,11,0.00
2013-6-19,90,83,76,78,76,74,96,80,62,29.97,29.90,13,1,13,0.00
2013-6-20,91,80,71,78,74,70,97,81,58,30.01,29.94,11,1,11,0.06
2013-6-21,90,82,73,77,74,72,97,79,58,30.03,29.95,10,1,11,0.00
2013-6-22,89,82,73,76,74,72,96,78,60,30.02,29.96,9,1,9,0.00
2013-6-23,88,82,75,77,75,72,94,79,65,30.05,29.97,9,2,12,0.18
2013-6-24,89,83,79,77,74,72,83,75,63,30.09,30.00,13,2,13,0.00
2013-6-25,89,82,77,78,75,72,90,79,66,30.06,29.96,12,2,12,0.00
2013-6-26,89,82,76,77,75,72,95,80,60,30.00,29.93,11,1,11,0.02
2013-6-27,88,80,74,80,75,70,97,86,68,29.99,29.88,8,1,8,0.66
2013-6-28,91,80,73,78,75,71,98,84,58,29.92,29.78,10,1,10,0.47
2013-6-29,92,79,73,79,75,71,98,88,56,29.85,29.73,12,1,12,0.85
2013-6-30,90,78,74,79,75,72,98,91,65,29.87,29.77,7,1,11,1.18